London, United Kingdom

6:50 AM BST on October 16, 2018 (GMT +0100)
Heathrow

Weather History for EGLL - June, 2018

Change the Weather History Date:

Thursday, June 14, 2018

  Actual Average Record
Temperature  
Mean Temperature 66 °F -  
Max Temperature 75 °F 69 °F 84 °F (2004)
Min Temperature 58 °F 53 °F 46 °F (2005)
Cooling Degree Days 2    
Growing Degree Days 16 (Base 50)    
Moisture  
Dew Point 52 °F    
Average Humidity 67    
Maximum Humidity 90    
Minimum Humidity 30    
Precipitation  
Precipitation 0.00 in - - ()
Sea Level Pressure  
Sea Level Pressure 29.89 in    
Wind  
Wind Speed 12 mph ()    
Max Wind Speed 20 mph    
Max Gust Speed 29 mph    
Visibility 7.9 miles    
Events Rain    
Averages and records for this station are not official NWS values.
T = Trace of Precipitation, MM = Missing Value Source: Averaged Metar Reports

Daily Weather History Graph

Daily Weather History Graph

Search for Another Location

Airport or City:

Astronomy

Jun. 14, 2018 Rise Set
Actual Time 4:44 AM BST 9:20 PM BST
Civil Twilight 3:56 AM BST 10:07 PM BST
Nautical Twilight 2:43 AM BST 11:21 PM BST
Astronomical Twilight 1:34 AM BST 12:29 AM BST
Moon 5:35 AM BST (6/14) 9:57 PM BST (6/14)
Length of Visible Light 18h 10m
Length of Day
16h 35m
New Moon, 1% of the Moon is Illuminated
Jun 14
New Moon
Jun 20
First Quarter
Jun 28
Full
Jul 6
Last Quarter
Jul 13
New

Hourly Weather History & Observations

Time (BST) Temp. Dew Point Humidity Pressure Visibility Wind Dir Wind Speed Gust Speed Precip Events Conditions
12:00 AM 59 °F 53 °F 73% 29.97 in 9 mi SSW 10.4 mph - -   Scattered Clouds
12:20 AM 59.0 °F 53.6 °F 82% 29.98 in 6.2 mi SSW 11.5 mph - N/A   Unknown
12:50 AM 59.0 °F 53.6 °F 82% 29.95 in 6.2 mi SSW 10.4 mph - N/A Rain Light Rain
1:00 AM 58 °F 53 °F 80% 29.96 in 7 mi SSW 11.5 mph - - Rain Light Rain
1:20 AM 59.0 °F 53.6 °F 82% 29.95 in 6.2 mi SSW 11.5 mph - N/A   Unknown
1:50 AM 59.0 °F 53.6 °F 82% 29.92 in 6.2 mi SSW 9.2 mph - N/A   Unknown
2:00 AM 58 °F 54 °F 80% 29.94 in 7 mi SSW 10.4 mph - - Rain Light Rain Showers
2:20 AM 59.0 °F 53.6 °F 82% 29.92 in 6.2 mi SSW 10.4 mph - N/A   Unknown
2:50 AM 59.0 °F 53.6 °F 82% 29.92 in 6.2 mi SSW 10.4 mph - N/A Rain Light Rain
3:00 AM 58 °F 53 °F 78% 29.91 in 14 mi SSW 12.7 mph - - Rain Rain
3:20 AM 59.0 °F 53.6 °F 82% 29.89 in 6.2 mi SSW 11.5 mph - N/A   Partly Cloudy
3:50 AM 59.0 °F 53.6 °F 82% 29.89 in 6.2 mi SSW 11.5 mph - N/A Rain Light Rain
4:00 AM 58 °F 53 °F 80% 29.89 in 19 mi SSW 12.7 mph - - Rain Light Rain Showers
4:20 AM 59.0 °F 53.6 °F 82% 29.86 in 6.2 mi SSW 16.1 mph - N/A   Partly Cloudy
4:50 AM 59.0 °F 51.8 °F 77% 29.86 in 6.2 mi SW 16.1 mph - N/A   Scattered Clouds
5:20 AM 59.0 °F 51.8 °F 77% 29.86 in 6.2 mi SW 13.8 mph - N/A   Scattered Clouds
5:50 AM 59.0 °F 51.8 °F 77% 29.86 in 6.2 mi SSW 13.8 mph - N/A   Mostly Cloudy
6:00 AM 59 °F 52 °F 71% 29.85 in 22 mi SSW 15.0 mph - -   Partly Cloudy
6:20 AM 59.0 °F 53.6 °F 82% 29.83 in 6.2 mi SSW 15.0 mph - N/A   Mostly Cloudy
6:50 AM 59.0 °F 53.6 °F 82% 29.83 in 6.2 mi SW 16.1 mph - N/A   Mostly Cloudy
7:00 AM 60 °F 53 °F 69% 29.84 in 19 mi SSW 18.4 mph - -  
7:20 AM 59.0 °F 53.6 °F 82% 29.83 in 6.2 mi SSW 16.1 mph - N/A   Mostly Cloudy
7:50 AM 60.8 °F 53.6 °F 77% 29.83 in 6.2 mi SSW 17.3 mph - N/A   Mostly Cloudy
8:00 AM 60 °F 53 °F 70% 29.83 in 19 mi SSW 19.6 mph - -   Mostly Cloudy
8:20 AM 59.0 °F 55.4 °F 88% 29.83 in 3.1 mi SSW 17.3 mph - N/A Rain Light Rain
8:50 AM 59.0 °F 55.4 °F 88% 29.83 in 5.0 mi SSW 13.8 mph - N/A   Overcast
9:00 AM 58 °F 56 °F 90% 29.83 in 7 mi SSW 16.1 mph - - Rain Rain
9:20 AM 59.0 °F 55.4 °F 88% 29.83 in 6.2 mi SSW 16.1 mph 27.6 mph N/A   Overcast
9:50 AM 60.8 °F 55.4 °F 82% 29.80 in 6.2 mi SW 16.1 mph - N/A   Overcast
10:00 AM 60 °F 55 °F 80% 29.82 in 19 mi SSW 17.3 mph - -   Overcast
10:20 AM 60.8 °F 55.4 °F 82% 29.83 in 6.2 mi SW 16.1 mph 28.8 mph N/A   Overcast
10:50 AM 60.8 °F 57.2 °F 88% 29.83 in 4.3 mi SW 17.3 mph - N/A Rain Light Rain
11:00 AM 61 °F 58 °F 85% 29.83 in 4 mi SW 17.3 mph - - Rain Light Rain
11:20 AM 62.6 °F 57.2 °F 82% 29.83 in 6.2 mi SW 16.1 mph - N/A   Overcast
11:50 AM 66.2 °F 57.2 °F 73% 29.83 in 6.2 mi SW 13.8 mph - N/A   Mostly Cloudy
12:00 PM 65 °F 57 °F 69% 29.84 in 19 mi SW 15.0 mph - - Rain Rain
12:20 PM 66.2 °F 57.2 °F 73% 29.83 in 6.2 mi WSW 16.1 mph - N/A   Mostly Cloudy
12:50 PM 68.0 °F 55.4 °F 64% 29.83 in 6.2 mi West 17.3 mph - N/A   Mostly Cloudy
1:00 PM 68 °F 53 °F 49% 29.84 in 11 mi West 18.4 mph - -   Scattered Clouds
1:20 PM 69.8 °F 51.8 °F 53% 29.86 in 6.2 mi West 18.4 mph - N/A   Scattered Clouds
1:50 PM 69.8 °F 50.0 °F 49% 29.86 in 6.2 mi West 16.1 mph - N/A   Mostly Cloudy
2:00 PM 69 °F 49 °F 38% 29.86 in 11 mi West 16.1 mph - -   Partly Cloudy
2:20 PM 69.8 °F 48.2 °F 46% 29.86 in 6.2 mi West 17.3 mph - N/A   Mostly Cloudy
2:50 PM 71.6 °F 48.2 °F 43% 29.86 in 6.2 mi West 16.1 mph - N/A   Partly Cloudy
3:00 PM 74 °F 49 °F 30% 29.86 in 13 mi West 18.4 mph - -   Partly Cloudy
3:20 PM 71.6 °F 48.2 °F 43% 29.86 in 6.2 mi West 16.1 mph - N/A   Scattered Clouds
3:50 PM 73.4 °F 48.2 °F 41% 29.89 in 6.2 mi West 16.1 mph 27.6 mph N/A   Scattered Clouds
4:20 PM 71.6 °F 50.0 °F 46% 29.89 in 6.2 mi West 13.8 mph - N/A   Scattered Clouds
4:50 PM 71.6 °F 50.0 °F 46% 29.89 in 6.2 mi West 15.0 mph - N/A   Unknown
5:00 PM 72 °F 49 °F 33% 29.89 in 14 mi West 16.1 mph - -   Partly Cloudy
5:20 PM 71.6 °F 48.2 °F 43% 29.89 in 6.2 mi West 13.8 mph - N/A   Unknown
5:50 PM 71.6 °F 48.2 °F 43% 29.89 in 6.2 mi West 12.7 mph - N/A   Unknown
6:20 PM 71.6 °F 46.4 °F 41% 29.92 in 6.2 mi WNW 8.1 mph - N/A   Unknown
6:50 PM 69.8 °F 48.2 °F 46% 29.92 in 6.2 mi West 12.7 mph - N/A   Unknown
7:00 PM 71 °F 47 °F 32% 29.92 in 28 mi West 10.4 mph - -   Partly Cloudy
7:20 PM 69.8 °F 48.2 °F 46% 29.92 in 6.2 mi NW 8.1 mph - N/A   Unknown
7:50 PM 68.0 °F 48.2 °F 49% 29.92 in 6.2 mi NW 9.2 mph - N/A   Unknown
8:00 PM 70 °F 48 °F 34% 29.94 in 17 mi NW 8.1 mph - -   Partly Cloudy
8:20 PM 69.8 °F 48.2 °F 46% 29.95 in 6.2 mi NW 5.8 mph - N/A   Unknown
8:50 PM 66.2 °F 48.2 °F 52% 29.95 in 6.2 mi NW 5.8 mph - N/A   Unknown
9:20 PM 64.4 °F 50.0 °F 59% 29.98 in 6.2 mi WNW 6.9 mph - N/A   Unknown
9:50 PM 62.6 °F 51.8 °F 68% 29.98 in 6.2 mi West 8.1 mph - N/A   Partly Cloudy
10:20 PM 62.6 °F 51.8 °F 68% 29.98 in 6.2 mi West 10.4 mph - N/A   Partly Cloudy
10:50 PM 59.0 °F 51.8 °F 77% 30.01 in 6.2 mi West 9.2 mph - N/A   Unknown
11:00 PM 63 °F 51 °F 57% 30.00 in 10 mi West 8.1 mph - -   Scattered Clouds
11:20 PM 59.0 °F 51.8 °F 77% 30.01 in 6.2 mi WNW 10.4 mph - N/A   Unknown
11:50 PM 59.0 °F 51.8 °F 77% 30.01 in 6.2 mi WNW 9.2 mph - N/A   Unknown